www.pogodaiklimat.ru

Погода и климат >> Архив погоды >> Китай >> Внутренняя Монголия >> Байрин-Цзоци


ПОГОДА в Байрин-Цзоци

  • Прогноз погоды в Байрин-Цзоци
  • Монитор погоды в Байрин-Цзоци

АРХИВ ПОГОДЫ в Байрин-Цзоци

Время (UTC), дата Ветер
(напр.,м/с)
 
Видим.   Явления Облачность Т
(С)
Тd
(С)
f
(%)
Тe
(С)
Тes
(С)
Комфортность P
(гПа)
Po
(гПа)
Тmin
(С)
Tmax
(С)
R
(мм)
R24
(мм)
S
(см)
00 16.04 Ю 8 30 км ясно +17.3 -14.6 10 +16 +17 1000.4 933.9
03 16.04 З 6 30 км 3/3
[]
+23.3 -16.3 6 +20 +24 1000.4 946.0
06 16.04 З 8
{19}
30 км 5/5
[]
+25.7 -16.8 5 +22 +23 комфорт 998.9 932.4 +9.5
09 16.04 З 8
{19}
30 км 6/6
[]
+25.0 -17.3 5 +22 +22 комфорт 997.6 943.7
12 16.04 ЮЗ 5 30 км 8/8
[]
+19.4 -15.7 8 +19 +19 998.7 932.4
15 16.04 ЮЗ 7 30 км н/о +16.6 -15.1 10 +16 +16 996.5 941.1
18 16.04 ЮЗ 12 30 км н/о +16.6 -7.8 18 +15 +15 994.1 928.7 +26.4
21 16.04 ЮЗ 12 14 км н/о +15.7 -1.4 31 +14 +14 991.5 936.2
00 17.04 Ю 14 10 км 9/9
[]
+17.9 +1.8 34 +16 +16 989.3 923.7
03 17.04 ЮЗ 16
{22}
9000 м 6/6
[]
+24.8 -3.6 15 +23 +23 комфорт 984.7 931.4
06 17.04 З 21
{31}
4600 м пыльный позёмок 4/4
[]
+24.2 -7.0 12 +22 +22 комфорт 985.6 920.6 +15.4
09 17.04 СЗ 15
{33}
3400 м пыльный позёмок 3/3
[]
+15.8 -7.8 19 +13 +13 994.9 939.4
12 17.04 СЗ 20
{33}
17 км ясно +9.7 -4.3 37 +4 +4 1002.2 934.6
15 17.04 СЗ 14
{33}
30 км н/о +5.2 -8.3 37 -1 -1 1007.0 948.8
18 17.04 СЗ 9
{33}
30 км ?/? +4.4 -8.3 39 -1 -1 1011.1 943.0 +28.4
21 17.04 С 6 30 км н/о +2.4 -11.1 36 -3 -3 1016.3 957.0
00 18.04 СЗ 7
{19}
30 км ясно +4.6 -12.8 27 0 +2 1020.7 950.3
03 18.04 СЗ 6 30 км 3/3
[]
+8.8 -13.6 19 +6 +10 1021.6 963.3
06 18.04 СЗ 8 30 км 3/3
[]
+11.7 -14.9 14 +9 +11 1019.7 949.6 +1.9
09 18.04 С 8 30 км 5/5
[]
+12.5 -14.3 14 +10 +10 1018.4 961.0
12 18.04 С 5 30 км 8/8
[]
+8.7 -15.7 16 +6 +6 1019.0 948.6
15 18.04 С 3 30 км н/о +5.8 -16.1 19 +4 +4 1019.5 960.7
18 18.04 В 2 30 км н/о +4.9 -15.6 21 +3 +3 1020.4 950.3 +13.0
21 18.04 ЮЗ 1 30 км н/о +3.2 -14.9 25 +3 +3 1020.1 960.7
00 19.04 В 2 30 км ясно +7.5 -14.6 19 +6 +12 1020.4 950.3
03 19.04 ЮВ 7 30 км 1/1
[]
+13.3 -15.5 12 +11 +15 1018.5 961.2
06 19.04 Ю 5 30 км 1/1
[]
+15.6 -13.7 12 +15 +21 1015.0 945.7 +2.7
09 19.04 Ю 8 30 км 6/6
[]
+16.0 -12.4 13 +15 +15 1011.7 955.3
12 19.04 В 5 30 км 3/3
[]
+13.2 -12.1 16 +12 +12 1010.0 941.1
15 19.04 В 2 30 км н/о +10.6 -12.1 19 +10 +10 1007.3 950.1
18 19.04 С 2 30 км н/о +9.4 -11.2 22 +9 +9 1004.5 936.5 +16.8
21 19.04 СЗ 2 30 км н/о +8.8 -11.7 22 +8 +8 1003.4 946.1
00 20.04 С 14
{18}
3600 м пыльный позёмок 9/9
[]
+10.5 -11.5 20 +6 +6 1007.0 938.7
03 20.04 СЗ 11
{18}
15 км 9/9
[]
+9.9 -15.5 15 +6 +6 1011.1 953.6
06 20.04 СЗ 9 30 км 6/6
[]
+14.0 -19.8 8 +12 +12 1011.2 942.5 +7.4
09 20.04 С 7 30 км ясно +13.1 -20.4 8 +11 +12 1012.6 955.6
12 20.04 С 5
{19}
30 км ясно +8.1 -21.7 10 +6 +6 1015.6 946.1
15 20.04 С 5 30 км н/о +5.0 -21.2 13 +2 +2 1017.0 958.2
18 20.04 Ю 3 30 км н/о +3.4 -20.1 16 +1 +1 1016.7 947.0 +14.8
21 20.04 В 1 30 км н/о +4.0 -19.6 16 +4 +4 1016.8 957.8
00 21.04 Ю 1 30 км ясно +7.8 -18.1 14 +8 +15 1017.6 947.6
03 21.04 Ю 4 30 км 3/3
[]
+13.7 -20.0 8 +13 +20 1015.4 958.4
06 21.04 ЮВ 4 30 км 3/3
[]
+16.5 -17.9 8 +16 +22 1012.3 943.2 +2.7
09 21.04 Ю 5 30 км 5/5
[]
+17.1 -16.0 9 +17 +17 1010.2 954.1
12 21.04 В 3 28 км 6/6
[]
+13.8 -15.1 12 +13 +13 1010.6 941.8
15 21.04 В 3 30 км н/о +11.6 -15.9 13 +11 +11 1009.2 952.1
18 21.04 С 3 30 км н/о +9.2 -13.9 18 +8 +8 1007.3 939.2 +17.6
21 21.04 С 2 28 км н/о +7.8 -13.8 20 +7 +7 1006.6 948.9
00 22.04 Ю 1 24 км 3/3
[]
+10.9 -10.6 21 +11 +16 1005.7 937.6
03 22.04 В 3 22 км 8/8
[]
+18.0 -7.4 17 +18 +21 1002.9 947.4
06 22.04 В 4 8000 м 9/9 1000 м
[]
+25.1 -0.1 19 +24 +24 комфорт 998.5 931.9 +7.0
09 22.04 В 2 12 км 9/9 1000 м
[]
+25.6 +1.7 21 +24 +25 комфорт 998.0 944.1
12 22.04 З 11
{19}
25 км {морось} 8/8 1000 м
[]
+27.2 -0.8 16 +25 +25 комфорт 996.7 930.7
15 22.04 С 6 30 км н/о +21.6 -10.1 11 +20 +20 1000.2 945.5
18 22.04 С 10 12 км н/о +16.2 -7.4 19 +15 +15 1002.4 936.3 +28.3
21 22.04 С 7 12 км н/о +13.1 -5.5 27 +11 +11 1005.3 948.7

 

Местоположение метеостанции Байрин-Цзоци (Внутренняя Монголия, Китай): широта 43.98 долгота 119.40 высота над уровнем моря 485 м.

В архиве по умолчанию представлена погода в Байрин-Цзоци за последнюю неделю. Архивные данные за месяц целиком и за предыдущие месяцы, начиная с января 2011 года, Вы можете получить, выбрав интересующий диапазон дат из раскрывающегося списка и нажав кнопку "Ввод!".


*Определитесь, кто Вы:
робот инопланетянин человек

Внимание! Время в таблицах - всемирное. Для получения местного времени необходимо прибавить поправку, которая равна 8 ч.

Смотрите также архив погоды в соседних городах и на ближайших метеорологических станциях:

Погода в Линьси (Внутренняя Монголия, Китай) (116 км)
Погода в Джаруд-Ци (Внутренняя Монголия, Китай) (136 км)
Погода в Си-Уджимчин-Ци (Внутренняя Монголия, Китай) (158 км)
Погода в Чифэне (Внутренняя Монголия, Китай) (194 км)
Погода в Дабейва (Внутренняя Монголия, Китай) (212 км)
Погода в Тунляо (Внутренняя Монголия, Китай) (233 км)
Погода в Дун-Уджимчин-Ци (Внутренняя Монголия, Китай) (258 км)
Погода в Шилин-Хото (Внутренняя Монголия, Китай) (263 км)
Погода в Вэйчане (Хэбэй, Китай) (265 км)
Погода в Чаояне (Ляонин, Китай) (284 км)

Пояснения к столбцам:

Ветер - указаны скорость ветра в м/с - средняя за 10 мин, порывы в срок и между сроками (в фигурных скобках) и направление, откуда дует ветер: С - северный, СВ - северо-восточный, В - восточный, ЮВ - юго-восточный, Ю - южный, ЮЗ - юго-западный, З - западный, СЗ - северо-западный.
Видимость - горизонтальная дальность видимости в метрах или километрах. При видимости от 1 до 10 км при отсутствии осадков обычно наблюдается дымка, при ухудшении видимости до 1 км и менее - туман. В сухую погоду видимость может ухудшаться дымом, пылью или мглою.
Явления - указаны атмосферные явления, наблюдавшиеся в срок или в последний час перед сроком; фигурными скобками обозначены явления, наблюдавшиеся между сроками (за 1-3 часа до срока); квадратными скобками обозначены град или гололедные отложения с указанием их диаметра в мм.
Облачность - указаны через наклонную черту общая и нижняя облачность в баллах и высота нижней границы облаков в метрах; квадратными скобками обозначены формы облаков: Ci - перистые, Cs - перисто-слоистые, Cc - перисто-кучевые, Ac - высококучевые, As - высокослоистые, Sc - слоисто-кучевые, Ns - слоисто-дождевые, Cu - кучевые, Cb - кучево-дождевые. Подробнее классификацию облаков см. в Атласе облаков (PDF).
T - Температура воздуха - температура, измеренная на высоте 2 м над землей.
Td - Температура точки росы - температура, при понижении до которой содержащийся в воздухе водяной пар достигнет насыщения.
f - Относительная влажность воздуха - влажноcть воздуха, измеренная на высоте 2 м над землей.
Te - Эффективная температура - температура, которую ощущает одетый по сезону человек в тени. Характеристика душности погоды. При расчете учитывается влияние влажности воздуха и скорости ветра на теплоощущения человека.
Tes - Эффективная температура на солнце - температура, которую ощущает человек, с поправкой на солнечный нагрев. Характеристика знойности погоды. Зависит от высоты солнца над горизонтом, облачности и скорости ветра. Ночью, в пасмурную погоду, а также при ветре 12 м/с и более поправка равна нулю.
P - Атмосферное давление - приведенное к уровню моря атмосферное давление.
Po - Атмосферное давление - измеренное на уровне метеостанции атмосферное давление.
Tmin - Минимальная температура - минимум температуры воздуха на высоте 2 м над землей.
Tmax - Максимальная температура - максимум температуры воздуха на высоте 2 м над землей.
R - Количество осадков - Количество выпавших осадков за период времени, мм. При наведении курсора мыши на число - период времени, за который выпало указанное количество осадков.
R24 - Количество осадков - Количество выпавших осадков за 24 часа, мм.
S - Снежный покров - Высота снежного покрова, см. При наведении курсора мыши на число - состояние снежного покрова и степень покрытия местности в баллах.